This is the latest recevied weather packets stored in our database for station/object DG2GGP-11. If no packets are shown the sender has not sent any weather packets the latest 1 day(s).
| Time | Temp. | Humidity | Pressure | Rain* | Wind** | Luminosity | Snow |
|---|---|---|---|---|---|---|---|
| 1777964357 | 13.33° C | 79% | 1010.3 hPa | 0 mm | 0.89 m/s, 293° | 10 W/m² | - |
| 1777963757 | 12.78° C | 80% | 1010.3 hPa | 0 mm | 0 m/s | 7 W/m² | - |
| 1777963157 | 12.78° C | 82% | 1010.3 hPa | 0 mm | 0 m/s | 9 W/m² | - |
| 1777962557 | 12.22° C | 82% | 1010.4 hPa | 0 mm | 1.34 m/s, 288° | 9 W/m² | - |
| 1777961956 | 11.67° C | 83% | 1010.5 hPa | 0 mm | 0 m/s | 5 W/m² | - |
| 1777961357 | 12.22° C | 82% | 1010.5 hPa | 0 mm | 0 m/s | 2 W/m² | - |
| 1777960756 | 11.67° C | 82% | 1010.4 hPa | 0 mm | 0 m/s | 3 W/m² | - |
| 1777960156 | 11.67° C | 82% | 1010.4 hPa | 0 mm | 0 m/s | 4 W/m² | - |
| 1777959557 | 11.11° C | 83% | 1010.5 hPa | 0 mm | 0.89 m/s, 198° | 5 W/m² | - |
| 1777958957 | 10.56° C | 85% | 1010.3 hPa | 0 mm | 0 m/s | 6 W/m² | - |
| 1777958356 | 10° C | 86% | 1010.3 hPa | 0 mm | 0 m/s | 6 W/m² | - |
| 1777957757 | 9.44° C | 87% | 1010.3 hPa | 0 mm | 0 m/s | 5 W/m² | - |
| 1777957156 | 9.44° C | 87% | 1010.3 hPa | 0 mm | 0 m/s | 4 W/m² | - |
| 1777956556 | 8.89° C | 87% | 1010.5 hPa | 0 mm | 0 m/s | 1 W/m² | - |
| 1777955957 | 8.89° C | 87% | 1010.5 hPa | 0 mm | 1.34 m/s, 248° | 1 W/m² | - |
| 1777955357 | 8.89° C | 87% | 1010.6 hPa | 0 mm | 0 m/s | 0 W/m² | - |
| 1777954757 | 8.89° C | 87% | 1010.6 hPa | 0 mm | 0 m/s | 0 W/m² | - |
| 1777954156 | 8.89° C | 87% | 1010.6 hPa | 0 mm | 0 m/s | 0 W/m² | - |
| 1777953557 | 8.89° C | 87% | 1010.7 hPa | 0 mm | 0 m/s | 0 W/m² | - |
| 1777952957 | 8.89° C | 88% | 1010.7 hPa | 0 mm | 0 m/s | 0 W/m² | - |
| 1777952357 | 8.89° C | 88% | 1010.9 hPa | 0 mm | 1.34 m/s, 235° | 0 W/m² | - |
| 1777951757 | 8.33° C | 88% | 1010.9 hPa | 0 mm | 1.79 m/s, 230° | 0 W/m² | - |
| 1777951157 | 8.33° C | 88% | 1010.9 hPa | 0 mm | 0 m/s | 0 W/m² | - |
| 1777950557 | 8.33° C | 88% | 1011 hPa | 0 mm | 0 m/s | 0 W/m² | - |
| 1777949956 | 8.33° C | 88% | 1011 hPa | 0 mm | 0 m/s | 0 W/m² | - |
* Rain latest hour (hover to see other rain measurements)
** Current wind speed in m/s (hover to see current wind gust speed)